Regional Weather Roundup
Issued by NWS Little Rock, AR

Home | Current Version | Previous Version | Text Only | Print | Product List | Glossary Off
Versions: 1 2 3 4 5 6 7 8 9 10 11 12 13 14 15 16 17 18 19 20 21 22 23 24 25 26 27 28 29 30 31 32 33 34 35 36 37 38 39 40 41 42 43 44 45 46 47 48

000
ASUS44 KLZK 301805
RWRLZK

WEATHER ROUNDUP FOR ARKANSAS
NATIONAL WEATHER SERVICE LITTLE ROCK AR
100 PM CDT SUN AUG 30 2015

NOTE: "FAIR" INDICATES FEW OR NO CLOUDS BELOW 12,000 FEET WITH NO
SIGNIFICANT WEATHER AND/OR OBSTRUCTIONS TO VISIBILITY.

ARZ001-003-010-029-301900-
NORTHWEST ARKANSAS

CITY           SKY/WX    TMP DP  RH WIND       PRES   REMARKS
FAYETTEVILLE   PTSUNNY   82  70  66 S7        30.03S HX  86
6HR MIN TEMP:  68; 6HR MAX TEMP:  84;

FORT SMITH     MOSUNNY   87  69  54 VRB6      29.98F HX  91
6HR MIN TEMP:  71; 6HR MAX TEMP:  87;

BENTONVILLE    MOSUNNY   84  66  54 SW10      30.04F HX  86
6HR MIN TEMP:  70; 6HR MAX TEMP:  86;

ROGERS         MOSUNNY   83  71  67 E12       30.04F HX  87
6HR MIN TEMP:  71; 6HR MAX TEMP:  84;

SILOAM SPGS    MOSUNNY   84  66  54 S10       30.01S HX  86
6HR MIN TEMP:  70; 6HR MAX TEMP:  84;

HIGHFILL       SUNNY     85  70  60 S9        30.03S HX  89
6HR MIN TEMP:  70; 6HR MAX TEMP:  85;

SPRINGDALE     MOSUNNY   84  68  58 SW6G14    30.06S HX  87
$$

ARZ004-005-016-301900-
NORTH CENTRAL ARKANSAS

CITY           SKY/WX    TMP DP  RH WIND       PRES   REMARKS
BATESVILLE     SUNNY     88  72  58 E6        30.03F HX  94
6HR MIN TEMP:  64; 6HR MAX TEMP:  88;

FLIPPIN        PTSUNNY   82  72  69 E3        30.03F HX  87
6HR MIN TEMP:  68; 6HR MAX TEMP:  82;

MTN HOME       LGT RAIN  79  71  76 CALM      30.04F
6HR MIN TEMP:  68; 6HR MAX TEMP:  80; 6HR PCP: TRACE;

$$

ARZ040-041-301900-
WEST CENTRAL ARKANSAS

CITY           SKY/WX    TMP DP  RH WIND       PRES   REMARKS
MENA           SUNNY     91  68  46 S8        30.03S HX  95
MOUNT IDA      SUNNY     90  66  45 VRB6      30.01F HX  92
6HR MIN TEMP:  66; 6HR MAX TEMP:  90;

$$

ARZ009-017-025-026-028-301900-
NORTHEAST ARKANSAS

CITY           SKY/WX    TMP DP  RH WIND       PRES   REMARKS
JONESBORO      PTSUNNY   85  70  60 SE8       30.04F HX  89
6HR MIN TEMP:  68; 6HR MAX TEMP:  85;

NEWPORT        MOSUNNY   87  73  62 CALM      30.05F HX  94
6HR MIN TEMP:  70; 6HR MAX TEMP:  87;

WALNUT RIDGE   MOSUNNY   84  72  65 SE8       30.04F HX  89
6HR MIN TEMP:  72; 6HR MAX TEMP:  84;

BLYTHEVILLE    MOSUNNY   84  73  69 S6        30.06F HX  90
6HR MIN TEMP:  74; 6HR MAX TEMP:  85; 6HR PCP:  0.06;

$$

ARZ022-023-033-042-044-301900-
CENTRAL ARKANSAS

CITY           SKY/WX    TMP DP  RH WIND       PRES   REMARKS
LITTLE ROCK    MOSUNNY   93  63  36 VRB7      30.02F HX  94
6HR MIN TEMP:  69; 6HR MAX TEMP:  94;

N LITTLE ROCK  MOSUNNY   90  67  46 S5        30.02F HX  92
6HR MIN TEMP:  70; 6HR MAX TEMP:  91;

JACKSONVILLE   SUNNY     91  66  42 VRB5      30.02F HX  93
6HR MIN TEMP:  65; 6HR MAX TEMP:  91;

SEARCY         SUNNY     91  69  48 VRB6      30.04F HX  96
6HR MIN TEMP:  66; 6HR MAX TEMP:  92;

HOT SPRINGS    SUNNY     90  65  43 SW7       30.03F HX  92
6HR MIN TEMP:  68; 6HR MAX TEMP:  90;

RUSSELLVILLE   MOSUNNY   90  69  50 VRB6      30.02S HX  94
6HR MIN TEMP:  69; 6HR MAX TEMP:  90;

$$

ARZ036-301900-
EAST ARKANSAS

CITY           SKY/WX    TMP DP  RH WIND       PRES   REMARKS
WEST MEMPHIS   PTSUNNY   85  68  56 S10       30.03F HX  88
6HR MIN TEMP:  73; 6HR MAX TEMP:  85; 6HR PCP: TRACE;

$$

ARZ050-053-066-070-073-301900-
SOUTHWEST ARKANSAS

CITY           SKY/WX    TMP DP  RH WIND       PRES   REMARKS
ARKADELPHIA    FAIR      93  68  44 VRB5      30.02F HX  97
6HR MIN TEMP:  65; 6HR MAX TEMP:  94;

CAMDEN         SUNNY     91  64  40 S5        30.02F HX  93
TEXARKANA      SUNNY     91  65  41 S9        30.02F HX  93
6HR MIN TEMP:  73; 6HR MAX TEMP:  91;

EL DORADO      SUNNY     91  63  39 S5        30.03F HX  92
6HR MIN TEMP:  67; 6HR MAX TEMP:  92;

DE QUEEN       SUNNY     91  68  46 S10G16    29.98F HX  95
6HR MIN TEMP:  68; 6HR MAX TEMP:  91;

$$

ARZ056-057-069-301900-
SOUTHEAST ARKANSAS

CITY           SKY/WX    TMP DP  RH WIND       PRES   REMARKS
PINE BLUFF     SUNNY     91  65  41 E3        30.02F HX  93
6HR MIN TEMP:  66; 6HR MAX TEMP:  91;

STUTTGART      SUNNY     90  68  48 SE8       30.03S HX  93
6HR MIN TEMP:  72; 6HR MAX TEMP:  91;

MONTICELLO     SUNNY     92  64  39 CALM      30.02F HX  93
6HR MIN TEMP:  71; 6HR MAX TEMP:  93;


$$




USA.gov is the U.S. government's official web portal to all federal, state and local government web resources and services.